Overview Statistics Trail Chart Weather Telemetry Raw packets
 

This is the latest recevied weather packets stored in our database for station/object KB0BDN-13. If no packets are shown the sender has not sent any weather packets the latest 10 day(s).

<< 1 2 3 4 5 6 >>
Time Temp. Humidity Pressure Rain* Wind** Luminosity Snow
1788675250 12.22° C 97% 1013.3 hPa 0 mm - - -
1788674497 12.22° C 97% 1013.3 hPa 0 mm - - -
1788674350 12.22° C 97% 1012.8 hPa 0 mm - - -
1788673597 12.22° C 96% 1012.8 hPa 0 mm - - -
1788673449 11.67° C 96% 1013.1 hPa 0 mm - - -
1788672696 12.22° C 96% 1013.1 hPa 0 mm - - -
1788672550 12.22° C 96% 1012.8 hPa 0 mm - - -
1788671796 12.22° C 96% 1012.8 hPa 0 mm - - -
1788670896 12.22° C 95% 1012.8 hPa 0 mm - - -
1788670749 12.22° C 95% 1012.7 hPa 0 mm - - -
1788669996 12.22° C 95% 1012.7 hPa 0 mm - - -
1788669848 12.22° C 95% 1012.6 hPa 0 mm - - -
1788669095 12.78° C 94% 1012.6 hPa 0 mm - - -
1788668952 12.78° C 94% 1012.8 hPa 0 mm - - -
1788668193 13.33° C 94% 1012.8 hPa 0 mm - - -
1788668051 13.33° C 94% 1012.6 hPa 0 mm - - -
1788667297 13.33° C 92% 1012.6 hPa 0 mm - - -
1788667150 13.33° C 92% 1012.6 hPa 0 mm - - -
1788666397 13.89° C 91% 1012.6 hPa 0 mm - - -
1788666250 13.89° C 91% 1012.6 hPa 0 mm - - -
1788665497 14.44° C 90% 1012.6 hPa 0 mm - - -
1788665350 14.44° C 90% 1012.5 hPa 0 mm - - -
1788664597 15° C 88% 1012.5 hPa 0 mm - - -
1788664449 15° C 88% 1012.4 hPa 0 mm - - -
1788663741 16.11° C 86% 1012.3 hPa 0 mm - - -

* Rain latest hour (hover to see other rain measurements)
** Current wind speed in m/s (hover to see current wind gust speed)